Wind_Speed
36 33 32 34 33 30 26 23 21 17 17 18 17 17 18 18 17 14 14 16 17 18 21 23 25 29 30 30 25 22 21 17 16 18 20 19 21 19 15 20 21 18 17 21
35 33 33 32 33 28 23 22 18 16 18 20 18 18 18 19 17 14 15 16 18 19 21 24 26 28 29 29 27 23 20 19 19 21 22 24 23 21 21 23 23 19 19 22
27 23 22 30 29 24 23 23 21 19 20 22 23 21 19 19 16 14 16 17 18 22 23 24 25 26 27 26 24 22 21 23 24 25 25 25 22 23 24 23 25 23 21 24
20 23 23 23 24 24 22 23 24 22 24 23 24 20 20 22 19 16 14 13 14 19 23 26 26 24 24 23 22 22 24 26 26 25 23 20 19 22 23 23 21 24 24 26
14 15 20 22 20 25 23 25 26 25 26 24 23 23 21 24 21 17 14 13 15 19 22 25 28 28 24 23 24 26 28 28 26 23 21 19 20 21 21 20 20 22 23 22
15 13 16 17 17 23 22 22 22 22 22 23 21 23 21 23 21 19 15 16 19 22 24 24 26 28 27 26 26 27 26 25 24 24 22 21 22 22 20 22 25 24 23 22
14 13 13 19 21 23 23 21 20 20 21 19 22 23 20 22 22 21 20 21 21 24 26 25 26 28 29 28 27 23 21 20 20 20 20 20 21 20 18 21 25 26 26 27
15 16 16 16 20 22 21 21 20 21 23 23 26 24 22 23 24 25 24 22 24 27 29 28 28 27 27 27 22 19 19 19 18 17 18 18 19 18 15 16 20 21 20 20
20 21 21 21 20 21 21 20 23 25 26 27 26 25 25 26 25 25 23 24 27 29 31 30 30 30 23 20 17 16 17 17 15 15 14 15 16 17 17 15 17 20 18 17
23 24 26 25 25 26 24 23 23 25 25 26 25 24 24 27 26 25 26 27 27 28 26 27 27 28 21 17 15 15 16 16 15 15 14 15 16 15 17 19 19 20 21 22
23 25 26 27 24 21 22 22 22 25 27 28 26 22 24 26 25 25 23 25 26 25 23 23 22 20 17 16 15 15 15 15 14 15 18 18 18 17 14 17 20 22 24 25
28 28 24 26 29 25 27 24 24 27 29 29 28 25 24 26 27 25 24 25 24 23 22 25 22 19 18 16 15 15 16 15 16 17 18 19 20 19 18 16 19 21 21 24
22 21 18 20 25 29 30 28 27 27 29 28 28 28 27 28 27 25 25 24 25 25 24 27 25 24 22 20 17 17 19 19 21 21 20 20 20 20 19 16 17 20 19 17
28 26 23 23 25 28 31 31 31 31 31 31 30 30 30 27 22 23 24 24 26 27 27 28 27 25 23 22 21 21 24 26 27 27 25 23 22 20 17 15 17 19 22 21
30 31 30 29 29 30 33 33 32 33 33 33 29 26 21 21 19 23 26 29 31 27 23 19 21 21 22 23 24 26 28 30 31 30 28 26 25 23 21 21 20 19 21 25
28 30 29 25 29 33 31 30 34 35 35 34 32 28 23 24 23 22 26 30 30 27 23 19 20 18 20 23 26 28 30 30 29 28 29 27 26 25 24 25 26 24 23 23
23 25 24 18 21 29 29 27 33 36 35 37 38 32 29 33 32 28 30 29 25 25 22 18 16 16 19 22 25 27 29 29 27 25 28 30 29 28 26 25 26 28 26 24
25 25 26 27 28 28 26 30 34 37 37 40 40 34 33 34 30 27 24 22 19 16 16 17 19 21 24 27 28 28 25 23 24 25 28 30 30 28 26 27 29 30 30 27
26 26 26 24 24 26 27 26 22 21 22 20 18 16 16 16 15 13 13 13 12 14 18 22 24 26 29 30 28 24 22 22 23 23 23 25 26 26 25 28 31 31 29 26
21 19 20 22 25 20 11 7 4 5 1 3 2 4 4 4 8 10 10 13 16 19 21 22 24 26 27 26 24 24 23 23 23 22 22 23 24 25 27 31 34 32 29 26
21 19 17 18 13 8 9 8 13 12 7 7 7 5 1 4 7 9 13 18 19 19 20 20 22 23 23 24 23 23 23 23 23 24 25 26 26 26 27 31 33 32 26 21
23 21 19 13 9 13 12 14 13 11 7 4 2 3 4 5 7 10 15 19 19 19 18 18 19 20 21 22 23 22 23 23 24 25 26 26 27 27 27 29 29 28 27 21
27 23 21 15 14 18 18 13 10 8 5 2 3 4 5 6 8 12 16 18 20 18 16 17 18 19 21 22 23 23 23 22 22 22 24 25 27 29 30 31 31 28 27 22
29 27 24 16 22 27 22 16 10 4 2 4 5 6 6 6 9 13 15 18 18 16 15 16 18 20 22 23 24 23 20 19 20 21 21 23 24 25 28 33 30 26 22 19
31 28 23 20 25 25 22 18 12 7 4 2 6 9 9 10 11 13 15 16 16 14 14 15 16 19 21 24 23 20 17 15 17 16 17 16 15 16 20 23 22 17 18 19
26 28 26 26 27 26 22 17 14 9 5 3 7 9 9 11 12 13 14 14 13 11 11 12 14 17 20 21 18 17 14 14 15 15 14 12 11 12 11 5 10 15 17 17
Wind_Direction
246 250 254 255 252 255 261 267 267 260 260 262 273 289 289 286 283 284 284 290 299 306 308 315 318 320 320 320 319 306 295 290 287 295 298 285 291 275 258 247 264 253 243 238
249 248 252 254 246 250 255 257 259 261 262 271 277 279 281 282 283 280 279 284 294 302 314 316 313 312 314 315 314 309 293 287 292 294 289 285 291 288 284 262 254 249 238 234
248 248 255 254 253 256 258 252 253 258 269 273 273 273 269 266 263 260 274 293 307 310 311 307 304 306 310 308 306 303 292 286 291 292 285 286 282 281 278 270 251 240 234 233
267 261 263 255 247 249 246 244 243 256 270 272 273 269 264 266 264 259 267 295 305 304 304 302 303 302 304 303 301 300 296 294 295 293 289 286 283 286 278 264 251 239 233 227
260 255 244 240 240 250 246 246 254 259 259 258 260 266 266 269 275 276 279 295 297 296 305 310 311 308 299 293 294 295 294 291 290 291 291 293 293 295 283 253 241 242 231 226
250 250 254 251 242 248 247 245 251 254 257 259 261 266 272 278 280 277 284 294 296 301 305 308 310 308 302 297 295 293 291 287 283 280 282 287 288 293 281 251 232 227 227 233
240 243 243 243 236 245 246 246 250 253 256 253 259 264 264 268 267 275 291 294 297 301 301 304 304 306 304 301 299 296 293 292 291 288 284 285 286 287 274 251 231 224 223 232
232 229 229 232 233 238 235 242 248 250 252 249 254 261 265 263 268 279 287 293 295 303 304 303 298 298 299 295 294 296 299 298 296 294 293 286 282 279 272 264 245 232 229 235
222 218 231 232 229 239 242 242 243 247 250 255 260 262 260 264 276 282 286 287 291 295 296 295 296 299 297 287 289 293 298 296 299 296 295 296 287 278 268 261 252 248 263 246
222 224 227 231 232 235 235 237 245 247 252 257 255 257 266 273 277 281 286 287 289 293 289 287 289 290 293 287 288 294 299 301 303 295 291 293 287 277 262 256 253 257 262 256
228 228 225 227 229 233 237 246 250 256 257 262 262 263 266 266 269 275 280 285 292 300 305 309 296 283 281 284 291 297 301 304 300 291 285 282 282 285 278 262 256 251 258 257
240 236 230 237 239 237 242 252 260 266 267 265 268 268 261 261 259 263 272 279 287 299 294 306 305 295 282 279 288 294 296 298 298 297 292 286 282 278 274 265 250 254 258 257
261 259 241 239 245 250 253 255 258 260 261 264 268 272 267 262 263 267 273 281 290 306 304 306 305 297 286 277 281 291 298 299 296 293 290 285 282 277 272 258 252 252 257 277
277 275 271 263 262 263 262 260 261 263 263 262 269 269 263 264 260 267 277 288 292 304 312 309 302 293 281 275 282 293 297 297 295 293 291 287 284 281 281 273 267 259 260 268
269 268 271 267 263 263 261 261 265 267 270 273 268 264 267 276 269 279 281 291 295 301 308 302 292 291 286 282 287 293 295 294 293 292 291 288 285 282 286 284 278 272 261 262
268 267 270 274 258 257 264 264 266 263 263 262 261 261 265 270 273 272 277 288 297 297 294 283 282 290 290 292 294 295 291 289 290 290 289 288 285 283 282 279 276 271 264 261
271 267 265 281 280 268 270 267 264 256 258 265 267 263 255 259 263 271 279 286 284 289 289 285 288 290 293 293 292 290 285 287 288 285 283 283 282 280 278 271 268 267 271 268
263 269 271 278 277 280 276 270 268 268 268 269 271 267 261 259 264 271 279 279 273 283 287 286 286 290 294 295 295 292 285 278 275 276 274 274 275 274 270 266 265 267 272 271
266 270 274 280 285 291 286 283 277 266 267 269 269 257 248 240 264 274 265 262 280 293 290 289 291 294 297 300 300 295 288 283 276 271 271 274 275 275 271 270 270 272 275 272
257 259 266 278 290 289 270 277 208 149 93 11 73 165 207 240 263 267 282 297 301 298 295 293 292 294 297 298 298 295 291 285 280 278 277 276 275 275 272 269 267 266 266 267
248 251 264 279 283 175 171 128 110 91 57 61 71 76 120 248 262 281 292 294 297 298 301 300 298 298 301 302 301 298 294 289 284 282 284 283 277 272 268 265 263 262 250 252
242 251 266 263 203 166 169 148 131 111 76 43 345 304 272 267 277 282 284 292 300 302 305 303 301 302 307 308 306 302 298 294 290 287 283 280 277 274 269 263 260 256 257 259
239 242 246 239 203 186 184 171 149 128 97 3 308 280 257 259 275 284 292 301 305 307 308 307 306 311 312 310 306 304 300 298 296 291 286 281 277 273 270 268 262 255 259 252
234 236 237 232 183 180 179 173 152 129 51 330 306 292 285 298 293 292 301 307 309 309 312 314 315 315 313 313 315 316 310 301 300 300 294 289 284 281 276 272 264 250 238 227
234 238 241 222 192 180 178 172 166 164 152 279 286 292 299 308 305 304 308 309 310 313 314 319 323 322 324 329 331 330 324 314 314 310 307 301 295 297 292 274 259 235 216 209
233 236 241 231 209 191 189 180 179 185 164 249 282 282 290 301 300 305 310 308 311 319 324 331 335 338 343 343 338 337 335 331 333 338 344 343 341 341 341 292 213 202 202 204
Height
5849 5854 5856 5857 5858 5859 5862 5863 5864 5865 5866 5866 5866 5866 5865 5864 5863 5862 5860 5858 5857 5855 5853 5851 5848 5845 5842 5839 5838 5837 5834 5833 5832 5831 5829 5828 5827 5827 5826 5825 5825 5826 5828 5829
5845 5849 5850 5852 5855 5855 5857 5858 5859 5861 5861 5861 5861 5860 5860 5859 5859 5858 5855 5853 5852 5851 5847 5844 5842 5839 5836 5834 5833 5831 5829 5828 5828 5827 5826 5824 5821 5821 5821 5820 5820 5820 5823 5824
5839 5843 5845 5847 5848 5851 5853 5854 5856 5856 5855 5854 5855 5855 5854 5853 5855 5854 5852 5849 5847 5844 5842 5840 5837 5833 5831 5830 5829 5827 5825 5824 5824 5824 5822 5819 5817 5815 5814 5813 5813 5815 5817 5818
5834 5835 5839 5842 5844 5845 5848 5849 5850 5851 5850 5849 5850 5851 5849 5848 5848 5849 5846 5844 5843 5841 5838 5835 5833 5829 5827 5825 5823 5822 5821 5819 5818 5817 5816 5815 5813 5811 5808 5807 5807 5808 5812 5812
5829 5831 5834 5837 5840 5841 5844 5844 5844 5844 5844 5844 5843 5843 5844 5843 5843 5843 5842 5840 5839 5837 5833 5827 5825 5823 5823 5821 5820 5818 5815 5813 5811 5810 5810 5810 5808 5806 5804 5802 5803 5806 5807 5808
5827 5829 5831 5834 5835 5836 5838 5839 5838 5838 5839 5839 5837 5838 5839 5837 5837 5837 5836 5835 5833 5830 5826 5822 5819 5817 5815 5815 5814 5812 5809 5807 5805 5805 5805 5805 5804 5802 5800 5798 5798 5801 5803 5805
5822 5826 5828 5830 5831 5833 5834 5835 5834 5834 5834 5834 5832 5832 5834 5832 5831 5830 5830 5828 5827 5824 5821 5819 5816 5812 5809 5807 5806 5805 5803 5801 5799 5798 5798 5799 5797 5796 5795 5794 5795 5797 5799 5801
5818 5821 5823 5825 5828 5828 5828 5829 5830 5830 5830 5829 5827 5827 5828 5826 5825 5825 5824 5823 5822 5819 5816 5814 5811 5808 5805 5802 5801 5799 5797 5795 5794 5793 5793 5793 5792 5791 5791 5790 5791 5794 5795 5796
5812 5815 5816 5818 5819 5821 5821 5822 5822 5823 5823 5823 5823 5823 5823 5821 5819 5818 5818 5818 5816 5814 5812 5809 5805 5801 5800 5799 5797 5795 5793 5791 5790 5790 5788 5787 5787 5786 5786 5787 5787 5788 5790 5792
5803 5808 5810 5811 5813 5814 5815 5815 5815 5816 5817 5816 5817 5816 5817 5815 5814 5813 5813 5813 5811 5809 5807 5804 5801 5796 5795 5795 5793 5790 5787 5785 5784 5784 5784 5783 5781 5781 5781 5782 5783 5784 5784 5784
5796 5800 5803 5803 5806 5809 5809 5809 5808 5809 5809 5809 5809 5813 5811 5809 5809 5808 5808 5807 5805 5804 5801 5798 5796 5793 5790 5789 5788 5786 5784 5782 5781 5781 5781 5780 5778 5776 5776 5776 5778 5778 5779 5779
5791 5792 5794 5797 5799 5801 5801 5801 5802 5802 5801 5802 5802 5808 5805 5802 5802 5802 5802 5801 5800 5799 5796 5793 5791 5788 5786 5785 5784 5783 5781 5779 5777 5777 5776 5776 5775 5773 5773 5772 5773 5774 5774 5774
5785 5786 5788 5791 5795 5794 5794 5794 5794 5793 5793 5795 5795 5799 5798 5795 5796 5797 5796 5795 5794 5793 5791 5787 5785 5783 5781 5780 5779 5778 5776 5775 5773 5772 5772 5771 5770 5768 5768 5768 5768 5769 5769 5769
5778 5780 5784 5785 5786 5786 5786 5787 5787 5787 5786 5788 5789 5791 5791 5791 5791 5791 5789 5789 5789 5788 5786 5782 5777 5776 5775 5774 5773 5772 5771 5770 5768 5766 5766 5766 5765 5764 5762 5761 5761 5762 5763 5763
5772 5773 5775 5776 5777 5778 5778 5780 5780 5780 5780 5780 5783 5782 5785 5785 5784 5784 5784 5782 5780 5781 5780 5777 5772 5771 5770 5768 5768 5767 5766 5764 5761 5760 5759 5759 5758 5757 5756 5755 5755 5755 5757 5759
5766 5766 5767 5769 5769 5768 5768 5773 5772 5770 5770 5770 5773 5776 5780 5777 5776 5778 5777 5775 5773 5773 5773 5772 5769 5767 5766 5764 5763 5761 5759 5756 5754 5751 5750 5750 5750 5749 5749 5748 5747 5748 5748 5750
5761 5762 5763 5764 5763 5763 5765 5767 5761 5760 5761 5762 5762 5769 5771 5769 5770 5771 5770 5769 5769 5766 5765 5766 5765 5764 5763 5761 5758 5756 5752 5749 5748 5747 5744 5741 5741 5741 5741 5741 5740 5739 5739 5740
5757 5757 5757 5757 5756 5757 5760 5755 5752 5751 5752 5752 5752 5757 5760 5762 5765 5765 5765 5764 5763 5761 5760 5760 5759 5759 5757 5755 5752 5748 5745 5744 5742 5741 5738 5735 5733 5733 5733 5733 5732 5731 5730 5732
5751 5752 5751 5750 5750 5750 5748 5744 5742 5741 5741 5742 5745 5750 5753 5756 5759 5760 5761 5760 5758 5757 5756 5755 5752 5750 5748 5745 5742 5740 5738 5735 5733 5732 5730 5727 5725 5723 5723 5724 5723 5722 5722 5724
5745 5746 5746 5745 5744 5743 5743 5740 5738 5740 5741 5743 5745 5749 5752 5755 5757 5758 5756 5754 5753 5752 5751 5749 5746 5744 5742 5739 5736 5732 5730 5727 5725 5723 5722 5720 5719 5717 5715 5714 5713 5712 5714 5716
5739 5740 5741 5741 5739 5738 5741 5742 5741 5743 5746 5745 5747 5750 5752 5753 5754 5753 5752 5751 5750 5748 5746 5743 5740 5738 5735 5731 5728 5725 5722 5719 5717 5715 5712 5710 5709 5708 5706 5704 5703 5704 5705 5706
5733 5734 5735 5737 5738 5740 5739 5739 5740 5741 5745 5746 5748 5749 5750 5751 5751 5750 5749 5747 5745 5743 5741 5738 5735 5732 5729 5725 5721 5717 5714 5710 5707 5705 5702 5700 5698 5697 5696 5695 5695 5697 5695 5698
5725 5728 5729 5732 5736 5737 5737 5737 5739 5740 5741 5745 5746 5747 5748 5749 5748 5747 5745 5743 5740 5738 5736 5734 5731 5727 5724 5720 5715 5711 5706 5703 5700 5696 5693 5691 5688 5687 5685 5684 5685 5685 5685 5691
5718 5719 5723 5726 5729 5729 5733 5735 5738 5740 5741 5743 5744 5744 5745 5746 5745 5743 5741 5738 5736 5734 5732 5730 5727 5723 5719 5714 5709 5704 5699 5696 5693 5689 5685 5682 5679 5677 5676 5674 5674 5676 5681 5685
5711 5713 5716 5720 5725 5728 5730 5731 5733 5734 5737 5741 5742 5742 5742 5742 5742 5740 5738 5735 5732 5730 5728 5726 5723 5719 5714 5708 5702 5698 5694 5691 5688 5684 5680 5676 5672 5670 5666 5663 5664 5667 5673 5678
5704 5707 5710 5714 5718 5721 5724 5726 5729 5731 5732 5738 5740 5740 5740 5740 5739 5737 5734 5731 5729 5727 5725 5723 5720 5716 5711 5705 5701 5697 5693 5689 5685 5680 5675 5672 5669 5665 5661 5659 5661 5665 5670 5675